sat.trackr.live / text

‹ back to catalog

FLOCK 4H-21

NORAD 66724 · 2025-276BL

PAYLOAD ACTIVE UNKNOWN

§ Identity

Operator
Country
US
Launch date
2025-11-28
Launch site
AFWTR
Launch vehicle
Mass (kg)
RCS (m²)

Purposes: earth_obs

External: N2YO · Heavens-Above · Gunter

§ Orbital elements

Epoch: 2026-05-25T04:21:29.623104Z

Period
94.71 min
Inclination
97.4187°
Eccentricity
0.0003262
Mean motion
15.20465350 rev/d
Perigee alt
502.2 km
Apogee alt
506.7 km
Semi-major
6,882.6 km
B*
2.7507e-4
RAAN
219.3158°
Arg perigee
54.4394°
Mean anomaly
305.7145°
Rev number
2,619

§ Raw data

FLOCK 4H-211 66724U 25276BL  26145.18159286  .00005938  00000+0  27507-3 0  99932 66724  97.4187 219.3158 0003262  54.4394 305.7145 15.20465350 26198

JSON: /api/v1/satellites/66724 · /tle

For live sub-satellite position, see the globe view (requires WebGL).

§ Visibility from observer

Set your observer location to see the next 7 days of passes ≥ 10°. The values pass through the URL so the page stays shareable.

No JS? Fill the form by hand. The geolocation button needs JavaScript.